[Date Prev][Date Next][Thread Prev][Thread Next] - [Date Index][Thread Index][Author Index]
2 Line ISS Keps 1-17
- Subject: [sarex] 2 Line ISS Keps 1-17
- From: "Dave Larsen PhD" <doc@xxxxxxxxxxx>
- Date: Mon, 16 Jan 2006 18:58:00 -0800
ISS
1 25544U 98067A 06016.85022288 .00009524 00000-0 69429-4 0 1657
2 25544 051.6448 245.6454 0010635 160.7003 309.1924 15.74050089409316
----
Via the sarex mailing list at AMSAT.ORG courtesy of AMSAT-NA.
To unsubscribe, send "unsubscribe sarex" to Majordomo@amsat.org
AMSAT Home